GW3813 Weather Reports


Display with metric or nautical units.
time (UTC)temp
F
wind
direction
speed
MPH
gust
MPH
rain 1hr
in
rain 24hr
in
rain mn
in
humidity
%
barometer
mb
20260507144541 51 256 11.0 20.0 0.00 0.08 0.00 74 1017.0
20260507144021 50 272 12.0 20.0 0.00 0.08 0.00 75 1017.3
20260507143522 49 250 12.0 20.0 0.00 0.08 0.00 75 1017.1
20260507143054 49 246 10.0 17.0 0.00 0.08 0.00 77 1017.1
20260507142522 48 242 11.0 15.0 0.00 0.08 0.00 78 1017.2
20260507142027 47 244 11.0 16.0 0.00 0.08 0.00 79 1017.4
20260507141550 46 235 11.0 16.0 0.00 0.08 0.00 80 1017.5
20260507141020 46 219 11.0 15.0 0.00 0.08 0.00 81 1017.6
20260507140525 45 210 10.0 15.0 0.00 0.08 0.00 82 1017.6
20260507140039 45 223 8.0 15.0 0.00 0.08 0.00 84 1017.6
20260507135522 44 232 11.0 15.0 0.00 0.08 0.00 84 1017.5
20260507135022 43 250 10.0 15.0 0.00 0.08 0.00 85 1017.7
20260507134546 43 241 9.0 16.0 0.00 0.08 0.00 85 1017.6
20260507134021 42 240 11.0 16.0 0.00 0.08 0.00 86 1017.6
20260507133521 42 261 11.0 16.0 0.00 0.08 0.00 86 1017.8
20260507133118 41 254 11.0 16.0 0.00 0.08 0.00 87 1017.8
20260507132529 41 241 9.0 14.0 0.00 0.08 0.00 87 1018.0
20260507132020 40 268 8.0 14.0 0.00 0.08 0.00 88 1017.9
20260507131545 40 256 10.0 16.0 0.00 0.08 0.00 88 1017.8
20260507131022 39 246 10.0 16.0 0.00 0.08 0.00 88 1017.7
20260507130521 39 257 10.0 15.0 0.00 0.08 0.00 88 1017.7
20260507130053 38 234 9.0 16.0 0.00 0.08 0.00 88 1017.7
20260507125522 38 252 10.0 16.0 0.00 0.09 0.00 88 1018.0
20260507125021 38 252 9.0 15.0 0.00 0.09 0.00 89 1017.9
20260507124547 37 247 7.0 11.0 0.00 0.09 0.00 89 1018.0
20260507124025 37 256 6.0 9.0 0.00 0.09 0.00 89 1018.0
20260507123526 36 234 4.0 10.0 0.00 0.09 0.00 89 1017.9
20260507123044 36 230 5.0 10.0 0.00 0.09 0.00 89 1018.0
20260507122521 36 230 5.0 10.0 0.00 0.09 0.00 89 1018.0
20260507122022 35 230 5.0 9.0 0.00 0.09 0.00 89 1018.0
20260507121544 35 238 4.0 8.0 0.00 0.09 0.00 89 1018.0
20260507121022 35 240 3.0 7.0 0.00 0.09 0.00 89 1018.1
20260507120521 35 238 3.0 8.0 0.00 0.09 0.00 88 1018.2
20260507120041 35 239 4.0 8.0 0.00 0.09 0.00 88 1018.3
20260507115521 35 240 4.0 10.0 0.00 0.09 0.00 88 1018.1
20260507115022 35 238 5.0 10.0 0.00 0.09 0.00 89 1018.2
20260507114555 34 244 5.0 9.0 0.00 0.09 0.00 88 1018.0
20260507114021 34 246 6.0 10.0 0.00 0.09 0.00 89 1018.2
20260507113523 34 257 6.0 10.0 0.00 0.09 0.00 88 1018.3
20260507113041 34 256 6.0 10.0 0.00 0.09 0.00 89 1018.4
20260507112522 34 253 4.0 8.0 0.00 0.09 0.00 88 1018.4
20260507112025 34 247 4.0 8.0 0.00 0.09 0.00 88 1018.3
20260507111539 34 248 5.0 8.0 0.00 0.09 0.00 89 1018.3
20260507111021 34 271 4.0 8.0 0.00 0.09 0.00 89 1018.4
20260507110521 33 250 5.0 8.0 0.00 0.09 0.00 89 1018.4
20260507110042 33 234 4.0 7.0 0.00 0.09 0.00 88 1018.6
20260507105521 32 229 3.0 6.0 0.00 0.09 0.00 88 1018.7
20260507105021 32 228 3.0 5.0 0.00 0.09 0.00 88 1018.6
20260507104541 32 228 3.0 5.0 0.00 0.09 0.00 88 1018.5
20260507104021 32 228 3.0 4.0 0.00 0.09 0.00 88 1018.4
20260507103522 32 228 2.0 4.0 0.00 0.09 0.00 88 1018.6
20260507103048 32 228 2.0 4.0 0.00 0.09 0.00 88 1018.5
20260507102520 32 228 2.0 4.0 0.00 0.09 0.00 88 1018.7
20260507102022 33 228 3.0 4.0 0.00 0.09 0.00 88 1018.6
20260507101540 33 228 3.0 4.0 0.00 0.09 0.00 88 1018.6
20260507101023 33 228 2.0 3.0 0.00 0.09 0.00 88 1018.8
20260507100522 33 228 2.0 3.0 0.00 0.09 0.00 88 1018.9
20260507100039 34 228 2.0 4.0 0.00 0.09 0.00 88 1019.0
20260507095524 34 228 2.0 4.0 0.00 0.10 0.00 88 1019.2
20260507095022 34 228 2.0 4.0 0.00 0.10 0.00 88 1019.1
20260507094554 34 228 2.0 4.0 0.00 0.10 0.00 87 1019.1
20260507094025 35 228 2.0 5.0 0.00 0.10 0.00 88 1019.1
20260507093521 35 228 2.0 5.0 0.00 0.10 0.00 88 1019.1
20260507093041 35 228 3.0 5.0 0.00 0.10 0.00 88 1019.2
20260507092521 35 228 3.0 5.0 0.00 0.10 0.00 88 1019.3
20260507092021 35 228 3.0 4.0 0.00 0.10 0.00 88 1019.2
20260507091540 35 228 3.0 4.0 0.00 0.10 0.00 88 1019.4
20260507091020 35 227 3.0 4.0 0.00 0.10 0.00 88 1019.2
20260507090522 35 227 3.0 5.0 0.00 0.10 0.00 88 1019.3
20260507090043 35 227 3.0 6.0 0.00 0.10 0.00 88 1019.3
20260507085522 36 227 3.0 6.0 0.00 0.10 0.00 88 1019.2
20260507085024 36 228 3.0 7.0 0.00 0.10 0.00 88 1019.5
20260507084544 36 228 4.0 7.0 0.00 0.10 0.00 88 1019.6
20260507084026 36 226 4.0 8.0 0.00 0.10 0.00 88 1019.6
20260507083522 36 227 4.0 8.0 0.00 0.10 0.00 88 1019.6
20260507083036 35 232 4.0 7.0 0.00 0.10 0.00 87 1019.7
20260507082522 36 230 4.0 7.0 0.00 0.10 0.00 87 1019.8
20260507082021 36 235 4.0 7.0 0.00 0.10 0.00 87 1019.9
20260507081542 36 250 3.0 5.0 0.00 0.10 0.00 87 1019.9
20260507081021 36 253 3.0 5.0 0.00 0.10 0.00 87 1019.9
20260507080519 36 254 2.0 4.0 0.00 0.10 0.00 87 1020.1
20260507080046 36 254 3.0 6.0 0.00 0.10 0.00 87 1020.0
20260507075519 36 255 3.0 7.0 0.00 0.11 0.00 87 1020.1
20260507075021 37 256 3.0 7.0 0.00 0.11 0.00 87 1020.2
20260507074627 37 257 4.0 7.0 0.00 0.11 0.00 87 1020.4
20260507074021 37 271 5.0 7.0 0.00 0.11 0.00 87 1020.3
20260507073525 37 254 4.0 7.0 0.00 0.11 0.00 87 1020.3
20260507073036 37 258 4.0 7.0 0.00 0.11 0.00 87 1020.3
20260507072522 37 259 3.0 6.0 0.00 0.11 0.00 87 1020.4
20260507072021 38 259 3.0 6.0 0.00 0.11 0.00 87 1020.5
20260507071546 38 259 2.0 6.0 0.00 0.11 0.00 87 1020.4
20260507071022 38 259 3.0 9.0 0.00 0.11 0.00 86 1020.3
20260507070522 39 260 4.0 9.0 0.00 0.11 0.00 86 1020.5
20260507070054 39 263 5.0 9.0 0.00 0.11 0.00 87 1020.6
20260507065520 39 265 4.0 7.0 0.00 0.11 0.00 87 1020.7
20260507065022 39 263 3.0 6.0 0.00 0.11 0.00 86 1020.8
20260507064547 39 263 3.0 4.0 0.00 0.11 0.00 86 1020.8
20260507064021 40 263 3.0 4.0 0.00 0.11 0.00 86 1020.7
20260507063522 39 263 2.0 4.0 0.00 0.11 0.00 86 1021.0
20260507063041 39 263 2.0 4.0 0.00 0.11 0.00 86 1020.9
20260507062518 40 263 2.0 6.0 0.00 0.11 0.00 86 1021.1
20260507062022 40 263 3.0 6.0 0.00 0.11 0.00 86 1021.2
20260507061538 40 263 4.0 6.0 0.00 0.11 0.00 86 1021.1
20260507061025 41 264 3.0 4.0 0.00 0.11 0.00 86 1021.3
20260507060521 41 264 2.0 3.0 0.00 0.11 0.00 86 1021.2
20260507060035 42 264 2.0 4.0 0.00 0.11 0.00 86 1021.3
20260507055522 42 264 2.0 4.0 0.00 0.11 0.00 86 1021.4
20260507055022 42 264 2.0 6.0 0.00 0.11 0.00 86 1021.4
20260507054541 42 264 3.0 6.0 0.00 0.11 0.00 86 1021.6
20260507054025 41 264 3.0 6.0 0.00 0.11 0.00 86 1021.6
20260507053522 41 264 3.0 4.0 0.00 0.11 0.00 86 1021.3
20260507053041 41 265 3.0 4.0 0.00 0.11 0.00 85 1021.3
20260507052521 42 265 2.0 3.0 0.00 0.11 0.00 85 1021.4
20260507052022 42 265 2.0 3.0 0.00 0.11 0.00 85 1021.0
20260507051542 43 265 2.0 3.0 0.00 0.11 0.00 85 1021.2
20260507051023 43 265 2.0 3.0 0.00 0.11 0.00 85 1021.2
20260507050518 43 265 2.0 3.0 0.00 0.11 0.00 84 1021.1
20260507050050 44 265 2.0 3.0 0.00 0.11 0.00 84 1021.2
20260507045522 44 265 1.0 4.0 0.00 0.11 0.11 84 1021.3
20260507045021 44 265 2.0 4.0 0.00 0.11 0.11 84 1021.4
20260507044542 44 265 1.0 4.0 0.00 0.11 0.11 84 1021.4
20260507044022 44 265 1.0 6.0 0.00 0.11 0.11 84 1021.5
20260507043522 44 265 3.0 6.0 0.00 0.11 0.11 84 1021.4
20260507043042 45 266 2.0 6.0 0.00 0.11 0.11 84 1021.5
20260507042521 45 267 2.0 4.0 0.00 0.11 0.11 84 1021.6
20260507042024 45 267 2.0 6.0 0.00 0.11 0.11 84 1021.7
20260507041545 45 267 3.0 6.0 0.00 0.11 0.11 84 1021.6
20260507041024 45 269 3.0 6.0 0.00 0.11 0.11 84 1021.8
20260507040523 45 272 3.0 6.0 0.00 0.11 0.11 84 1021.6
20260507040045 45 273 4.0 6.0 0.00 0.11 0.11 84 1021.5
20260507035522 45 274 2.0 7.0 0.00 0.11 0.11 84 1021.6
20260507035021 45 274 3.0 7.0 0.00 0.11 0.11 83 1021.5
20260507034542 45 274 4.0 8.0 0.00 0.11 0.11 83 1021.4
20260507034025 45 273 4.0 9.0 0.00 0.11 0.11 83 1021.6
20260507033522 45 275 5.0 9.0 0.00 0.11 0.11 83 1021.6
20260507033045 45 281 4.0 7.0 0.00 0.11 0.11 83 1021.5
20260507032521 45 286 4.0 7.0 0.00 0.11 0.11 83 1021.5
20260507032024 45 287 3.0 8.0 0.00 0.11 0.11 83 1021.2
20260507031554 45 289 4.0 8.0 0.00 0.11 0.11 83 1021.3
20260507031022 45 285 6.0 8.0 0.00 0.11 0.11 82 1021.2
20260507030522 45 279 5.0 8.0 0.00 0.11 0.11 82 1021.4
20260507030104 45 278 5.0 9.0 0.00 0.11 0.11 82 1021.3
20260507025521 45 290 5.0 9.0 0.00 0.11 0.11 82 1021.0
20260507025023 46 280 5.0 8.0 0.00 0.11 0.11 82 1021.1
20260507024601 46 284 4.0 7.0 0.00 0.11 0.11 82 1020.9
20260507024018 46 292 3.0 7.0 0.00 0.11 0.11 82 1020.8
20260507023519 46 15 2.0 4.0 0.00 0.11 0.11 82 1020.6
20260507023041 46 22 1.0 3.0 0.00 0.11 0.11 81 1020.5
20260507022520 46 22 1.0 3.0 0.00 0.11 0.11 81 1020.5
20260507022019 46 22 1.0 3.0 0.00 0.11 0.11 81 1020.4
20260507021552 46 22 1.0 3.0 0.00 0.11 0.11 80 1020.3
20260507021019 46 22 0.0 2.0 0.00 0.11 0.11 80 1020.2
20260507020520 46 22 1.0 2.0 0.00 0.11 0.11 80 1020.1
20260507020047 46 22 0.0 1.0 0.00 0.11 0.11 80 1020.0
20260507015521 46 0 0.0 0.0 0.00 0.11 0.11 80 1020.0
20260507015022 46 0 0.0 1.0 0.00 0.11 0.11 79 1020.1
20260507014552 46 0 0.0 2.0 0.00 0.11 0.11 79 1020.0
20260507014019 46 0 0.0 2.0 0.00 0.11 0.11 79 1020.2
20260507013521 46 22 1.0 4.0 0.00 0.11 0.11 79 1020.3
20260507013043 46 22 1.0 5.0 0.00 0.11 0.11 78 1020.2
20260507012521 47 22 2.0 5.0 0.00 0.11 0.11 78 1020.2
20260507012021 47 22 3.0 5.0 0.00 0.11 0.11 77 1020.4
20260507011547 47 38 2.0 4.0 0.00 0.11 0.11 77 1020.3
20260507011020 47 53 2.0 3.0 0.00 0.11 0.11 76 1020.3
20260507010519 47 54 1.0 4.0 0.00 0.11 0.11 76 1020.2
20260507010042 47 54 2.0 4.0 0.00 0.11 0.11 75 1020.0
20260507005519 47 54 2.0 4.0 0.00 0.11 0.11 75 1019.9
20260507005023 47 54 2.0 4.0 0.00 0.11 0.11 75 1019.7
20260507004543 47 54 2.0 4.0 0.00 0.11 0.11 74 1019.7
20260507004022 47 54 3.0 5.0 0.00 0.11 0.11 74 1019.6
20260507003522 47 54 2.0 5.0 0.00 0.11 0.11 74 1019.4
20260507003042 47 55 3.0 5.0 0.00 0.11 0.11 74 1019.3
20260507002521 47 55 3.0 5.0 0.00 0.11 0.11 74 1019.5
20260507002022 47 55 2.0 5.0 0.00 0.11 0.11 74 1019.7
20260507001541 47 55 3.0 5.0 0.00 0.11 0.11 74 1019.7
20260507001021 47 55 3.0 5.0 0.00 0.11 0.11 74 1019.6
20260507000521 47 55 3.0 6.0 0.00 0.11 0.11 74 1019.7
20260507000043 47 54 4.0 6.0 0.00 0.11 0.11 74 1019.9
20260506235522 47 53 3.0 8.0 0.00 0.11 0.11 74 1020.0
20260506235018 48 51 3.0 8.0 0.00 0.11 0.11 74 1019.9
20260506234545 48 42 3.0 8.0 0.00 0.11 0.11 74 1020.0
20260506234022 48 69 4.0 9.0 0.00 0.11 0.11 73 1019.7
20260506233522 48 55 5.0 9.0 0.00 0.11 0.11 73 1019.3
20260506233049 48 53 5.0 9.0 0.00 0.11 0.11 73 1019.5
20260506232521 48 58 4.0 8.0 0.00 0.11 0.11 74 1019.5
20260506232021 48 76 4.0 6.0 0.00 0.11 0.11 73 1019.7
20260506231546 48 71 1.0 8.0 0.00 0.11 0.11 73 1019.7
20260506231022 48 71 2.0 8.0 0.00 0.11 0.11 73 1019.7
20260506230521 48 76 5.0 8.0 0.00 0.11 0.11 73 1019.3
20260506230046 48 104 3.0 7.0 0.00 0.11 0.11 74 1019.3
20260506225525 48 105 3.0 7.0 0.00 0.11 0.11 74 1019.4
20260506225025 48 105 3.0 7.0 0.00 0.11 0.11 74 1019.3
20260506224541 48 106 2.0 6.0 0.00 0.11 0.11 74 1019.5
20260506224018 48 0 1.0 7.0 0.00 0.11 0.11 74 1019.6
20260506223519 48 0 1.0 7.0 0.00 0.11 0.11 75 1019.5
20260506223038 48 113 1.0 4.0 0.00 0.11 0.11 76 1019.4
20260506222519 47 113 0.0 8.0 0.00 0.11 0.11 76 1019.3
20260506222019 47 113 3.0 8.0 0.00 0.11 0.11 76 1019.5
20260506221535 47 118 3.0 7.0 0.00 0.11 0.11 77 1019.6
20260506221018 47 117 3.0 10.0 0.00 0.11 0.11 77 1019.6
20260506220522 47 117 5.0 10.0 0.00 0.11 0.11 77 1019.8
20260506220052 48 111 6.0 10.0 0.00 0.11 0.11 77 1019.7
20260506215522 48 126 5.0 10.0 0.00 0.11 0.11 77 1019.7
20260506215023 47 117 4.0 9.0 0.00 0.11 0.11 77 1019.6
20260506214546 47 116 3.0 8.0 0.00 0.11 0.11 78 1019.7
20260506214025 47 113 2.0 8.0 0.00 0.11 0.11 79 1019.6
20260506213526 47 112 4.0 8.0 0.00 0.11 0.11 80 1019.6
20260506213043 47 108 4.0 8.0 0.00 0.11 0.11 80 1019.6
20260506212523 46 84 3.0 9.0 0.00 0.11 0.11 81 1019.7
20260506212026 46 82 1.0 9.0 0.00 0.11 0.11 82 1019.8
20260506211541 46 65 2.0 8.0 0.00 0.11 0.11 82 1019.8
20260506211021 46 70 3.0 8.0 0.00 0.11 0.11 82 1019.9
20260506210523 46 86 2.0 8.0 0.00 0.11 0.11 82 1019.9
20260506210041 45 86 4.0 10.0 0.00 0.11 0.11 82 1019.9
20260506205525 45 79 5.0 10.0 0.00 0.11 0.11 83 1019.9
20260506205023 45 77 7.0 10.0 0.00 0.11 0.11 83 1019.7
20260506204544 45 80 5.0 13.0 0.00 0.11 0.11 83 1019.9
20260506204021 45 94 7.0 13.0 0.00 0.11 0.11 84 1019.9
20260506203525 45 90 6.0 9.0 0.00 0.11 0.11 84 1019.7
20260506203043 45 98 6.0 10.0 0.00 0.11 0.11 84 1019.9
20260506202521 44 88 5.0 10.0 0.00 0.11 0.11 85 1020.0
20260506202024 44 92 6.0 10.0 0.00 0.11 0.11 85 1019.8
20260506201542 44 101 4.0 10.0 0.00 0.11 0.11 85 1020.0
20260506201021 44 96 5.0 10.0 0.00 0.11 0.11 85 1020.0
20260506200522 44 81 4.0 10.0 0.00 0.11 0.11 85 1020.0
20260506200042 44 102 4.0 8.0 0.00 0.11 0.11 85 1020.0
20260506195525 44 101 2.0 8.0 0.00 0.11 0.11 86 1019.9
20260506195023 44 101 4.0 8.0 0.00 0.11 0.11 86 1019.9
20260506194539 43 111 4.0 10.0 0.00 0.11 0.11 86 1020.1
20260506194023 43 107 5.0 10.0 0.00 0.11 0.11 87 1019.9
20260506193520 43 95 6.0 10.0 0.00 0.11 0.11 87 1019.9
20260506193045 43 86 6.0 10.0 0.00 0.11 0.11 87 1019.9
20260506192523 43 98 6.0 8.0 0.00 0.11 0.11 87 1020.1
20260506192026 43 59 5.0 13.0 0.00 0.11 0.11 87 1020.0
20260506191542 43 70 6.0 14.0 0.01 0.11 0.11 87 1020.0
20260506191021 43 68 9.0 14.0 0.01 0.11 0.11 87 1019.9
20260506190523 43 52 6.0 10.0 0.01 0.11 0.11 87 1019.9
20260506190042 44 72 5.0 11.0 0.01 0.11 0.11 87 1020.1
20260506185521 43 110 4.0 11.0 0.01 0.11 0.11 87 1019.9
20260506185021 43 95 7.0 11.0 0.01 0.11 0.11 88 1020.1
20260506184547 42 98 6.0 10.0 0.01 0.11 0.11 88 1020.3
20260506184025 42 88 5.0 10.0 0.02 0.11 0.11 88 1020.4
20260506183522 42 71 6.0 9.0 0.02 0.11 0.11 88 1020.4
20260506183035 42 90 5.0 8.0 0.02 0.11 0.11 88 1020.5
20260506182520 42 80 5.0 12.0 0.03 0.11 0.11 89 1020.5
20260506182021 42 65 7.0 12.0 0.03 0.11 0.11 88 1020.4
20260506181541 42 53 7.0 12.0 0.02 0.10 0.10 89 1020.5
20260506181022 42 74 7.0 12.0 0.03 0.10 0.10 89 1020.5
20260506180522 42 72 7.0 12.0 0.03 0.10 0.10 88 1020.5
20260506180046 42 59 6.0 11.0 0.04 0.10 0.10 88 1020.6
20260506175521 41 71 7.0 11.0 0.04 0.10 0.10 88 1020.6
20260506175023 41 78 8.0 11.0 0.04 0.10 0.10 88 1020.8
20260506174540 42 65 7.0 11.0 0.04 0.10 0.10 88 1020.7
20260506174021 42 71 6.0 11.0 0.04 0.09 0.09 89 1020.6
20260506173521 41 68 8.0 11.0 0.04 0.09 0.09 88 1020.6
20260506173109 41 47 6.0 12.0 0.04 0.09 0.09 88 1020.5
20260506172521 41 70 8.0 12.0 0.03 0.08 0.08 88 1020.6
20260506172022 41 61 8.0 12.0 0.03 0.08 0.08 88 1020.5
20260506171535 41 44 7.0 12.0 0.04 0.08 0.08 88 1020.6
20260506171024 41 64 7.0 12.0 0.03 0.07 0.07 88 1020.6
20260506170521 42 62 7.0 12.0 0.03 0.07 0.07 88 1020.6
20260506170046 42 49 6.0 12.0 0.02 0.06 0.06 88 1020.6
20260506165521 41 65 6.0 12.0 0.02 0.06 0.06 88 1020.6
20260506165021 41 46 7.0 12.0 0.02 0.06 0.06 88 1020.4
20260506164542 41 59 8.0 13.0 0.01 0.05 0.05 88 1020.4
20260506164025 41 55 8.0 13.0 0.01 0.05 0.05 88 1020.3
20260506163523 41 58 7.0 12.0 0.01 0.05 0.05 88 1020.5
20260506163043 41 59 8.0 12.0 0.01 0.05 0.05 88 1020.3
20260506162524 41 39 7.0 11.0 0.01 0.05 0.05 88 1020.2
20260506162022 41 53 6.0 11.0 0.01 0.05 0.05 88 1020.2
20260506161536 41 37 7.0 11.0 0.01 0.04 0.04 88 1020.1
20260506161021 41 39 6.0 11.0 0.01 0.04 0.04 88 1020.1
20260506160521 41 59 8.0 11.0 0.01 0.04 0.04 88 1019.9
20260506160047 41 50 6.0 11.0 0.01 0.04 0.04 88 1020.1
20260506155520 41 49 8.0 11.0 0.01 0.04 0.04 88 1019.9
20260506155021 41 59 5.0 9.0 0.01 0.04 0.04 88 1019.8
20260506154552 41 75 5.0 10.0 0.01 0.04 0.04 88 1019.7
20260506154021 41 77 6.0 10.0 0.01 0.04 0.04 88 1019.5
20260506153521 41 74 7.0 10.0 0.01 0.04 0.04 88 1019.4
20260506153046 41 65 5.0 9.0 0.01 0.04 0.04 88 1019.5
20260506152520 41 51 5.0 9.0 0.01 0.04 0.04 88 1019.6
20260506152023 41 64 6.0 9.0 0.01 0.04 0.04 88 1019.6
20260506151541 41 51 5.0 10.0 0.00 0.03 0.03 88 1019.6
20260506151025 41 56 5.0 10.0 0.00 0.03 0.03 88 1019.5
20260506150524 41 53 6.0 9.0 0.00 0.03 0.03 88 1019.5
20260506150042 41 59 6.0 9.0 0.00 0.03 0.03 88 1019.6
20260506145522 41 47 5.0 9.0 0.00 0.03 0.03 88 1019.6
20260506145020 41 102 3.0 6.0 0.00 0.03 0.03 88 1019.5